Terug naar catalogus

BEIDOU 2 G8

ActiefNavigatieGEO
NORAD 44231·PAYLOAD·🇨🇳 China

Gelanceerd May 17, 2019 vanaf Xichang Satellite Launch Center

Loading…

TLE

VersSource: Space-Track

Epoch: Sep 14, 2026, 23:02 UTC

1 44231U 19027A   26257.96013426 -.00000253  00000-0  00000-0 0  9997
2 44231   1.8804  74.3121 0009077 279.1154 130.7112  1.00271584 26985

Volg BEIDOU 2 G8 in realtime met AllMySat

Download on the App Store